This demonstration page uses our WeatherBlox Daily Observations layout. Learn more.

Left ArrowRight Arrow

Hourly Observations for January 11, 2017

Temp ( °F °C ) Dew Point ( °F °C ) Humidity (%) Winds ( mph kmh ) Pressure ( in mb ) Visibility ( mi km ) Precip ( " mm )
12:15 am 00:15 Clear 34 1 30 -1 87 87 WSW 15 24 30.12 1020 10 16 N/A
12:35 am 00:35 Clear 34 1 30 -1 87 87 W 17 28 30.12 1020 10 16 N/A
12:54 am 00:54 Clear 34 1 30 -1 87 87 W 14 22 30.12 1020 10 16 N/A
1:15 am 01:15 Clear 32 undefined 30 -1 93 93 W 10 17 30.15 1021 10 16 N/A
1:34 am 01:34 Clear 32 undefined 28 -2 87 87 WSW 7 11 30.15 1021 10 16 N/A
1:55 am 01:55 Clear 30 -1 28 -2 93 93 W 7 11 30.15 1021 7 11 N/A
2:15 am 02:15 Clear 30 -1 28 -2 93 93 WSW 3 6 30.15 1021 7 11 N/A
2:35 am 02:35 Clear 30 -1 28 -2 93 93 WSW 3 6 30.15 1021 7 11 N/A
2:55 am 02:55 Clear 30 -1 28 -2 93 93 SSW 5 7 30.15 1021 7 11 N/A
3:15 am 03:15 Clear 30 -1 28 -2 93 93 S 6 9 30.15 1021 7 11 N/A
3:35 am 03:35 Clear 30 -1 28 -2 93 93 S 6 9 30.15 1021 7 11 N/A
3:55 am 03:55 Clear 30 -1 28 -2 93 93 S 5 7 30.15 1021 7 11 N/A
4:15 am 04:15 Clear 30 -1 28 -2 93 93 N N/A 30.18 1022 7 11 N/A
4:35 am 04:35 Clear 30 -1 28 -2 93 93 S 5 7 30.18 1022 7 11 N/A
4:55 am 04:55 Clear 30 -1 28 -2 93 93 SSE 3 6 30.15 1021 7 11 N/A
5:15 am 05:15 Clear 30 -1 28 -2 93 93 SSE 3 6 30.15 1021 5 8 N/A
5:35 am 05:35 Clear 30 -1 28 -2 93 93 SSE 5 7 30.15 1021 5 8 N/A
5:55 am 05:55 Clear 30 -1 28 -2 93 93 SSE 7 11 30.15 1021 5 8 N/A
6:15 am 06:15 Clear 30 -1 30 -1 100 100 SSE 9 15 30.12 1020 5 8 N/A
6:35 am 06:35 Clear 30 -1 30 -1 100 100 SSE 10 17 30.12 1020 7 11 N/A
6:55 am 06:55 Clear 32 undefined 30 -1 93 93 S 9 15 30.12 1020 7 11 N/A
7:14 am 07:14 Clear 32 undefined 30 -1 93 93 SSE 10 17 30.12 1020 7 11 N/A
7:35 am 07:35 Clear 32 undefined 30 -1 93 93 S 9 15 30.12 1020 7 11 N/A
7:55 am 07:55 Clear 32 undefined 30 -1 93 93 SSE 8 13 30.12 1020 7 11 N/A
8:15 am 08:15 Sunny 32 undefined 30 -1 93 93 SSE 9 15 30.12 1020 7 11 N/A
8:35 am 08:35 Sunny 32 undefined 30 -1 93 93 SSE 8 13 30.09 1019 7 11 N/A
8:55 am 08:55 Sunny 32 undefined 30 -1 93 93 SSE 8 13 30.09 1019 7 11 N/A
9:15 am 09:15 Sunny 34 1 30 -1 87 87 SE 6 9 30.09 1019 10 16 N/A
9:35 am 09:35 Sunny 36 2 30 -1 81 81 SSE 9 15 30.09 1019 10 16 N/A
9:55 am 09:55 Sunny 36 2 32 undefined 87 87 SSE 9 15 30.09 1019 10 16 N/A
10:15 am 10:15 Partly Cloudy 37 3 32 undefined 81 81 SSE 9 15 30.09 1019 10 16 N/A
10:35 am 10:35 Cloudy 39 4 36 2 87 87 SSE 13 20 30.06 1018 10 16 N/A
10:55 am 10:55 Cloudy 39 4 37 3 93 93 SSE 13 20 30.06 1018 10 16 N/A
11:15 am 11:15 Cloudy 41 5 39 4 93 93 SSE 12 19 30.03 1017 4 6 N/A
11:35 am 11:35 Cloudy 41 5 41 5 100 100 SSE 12 19 30.00 1016 1 2 N/A
11:55 am 11:55 Cloudy 43 6 41 5 93 93 S 14 22 30.00 1016 1 1 N/A
12:14 pm 12:14 Cloudy 43 6 43 6 100 100 S 10 17 29.97 1015 0 0 N/A
12:35 pm 12:35 Cloudy 43 6 43 6 100 100 SSE 12 19 29.97 1015 0 0 N/A
12:55 pm 12:55 Cloudy 43 6 43 6 100 100 S 9 15 29.94 1014 0 0 N/A
1:15 pm 13:15 Cloudy 43 6 43 6 100 100 S 9 15 29.94 1014 0 0 N/A
1:35 pm 13:35 Cloudy 43 6 43 6 100 100 S 7 11 29.91 1013 0 0 N/A
1:55 pm 13:55 Cloudy 45 7 45 7 100 100 S 9 15 29.91 1013 5 8 N/A
2:15 pm 14:15 Cloudy 45 7 45 7 100 100 S 8 13 29.91 1013 5 8 N/A
2:35 pm 14:35 Cloudy 46 8 45 7 93 93 SSE 8 13 29.88 1012 5 8 N/A
2:55 pm 14:55 Cloudy 46 8 46 8 100 100 SSE 7 11 29.85 1011 1 1 N/A
3:15 pm 15:15 Cloudy 48 9 48 9 100 100 SSE 14 22 29.85 1011 2 3 N/A
3:35 pm 15:35 Cloudy 48 9 48 9 100 100 S 14 22 29.85 1011 7 11 N/A
3:55 pm 15:55 Cloudy 50 10 50 10 100 100 S 13 20 29.83 1010 7 11 N/A
4:15 pm 16:15 Cloudy 50 10 50 10 100 100 S 13 20 29.80 1009 4 6 N/A
4:35 pm 16:35 Cloudy 50 10 50 10 100 100 S 12 19 29.80 1009 3 5 N/A
4:55 pm 16:55 Cloudy 50 10 50 10 100 100 S 13 20 29.80 1009 3 5 N/A
5:15 pm 17:15 Cloudy 52 11 50 10 94 94 S 14 22 29.80 1009 2 3 N/A
5:35 pm 17:35 Cloudy 52 11 52 11 100 100 S 14 22 29.80 1009 2 3 N/A
5:55 pm 17:55 Cloudy 52 11 52 11 100 100 S 13 20 29.77 1008 2 3 N/A
6:15 pm 18:15 Cloudy 52 11 52 11 100 100 S 14 22 29.77 1008 4 6 N/A
6:35 pm 18:35 Cloudy 52 11 52 11 100 100 S 13 20 29.77 1008 4 6 N/A
6:55 pm 18:55 Cloudy 54 12 52 11 94 94 S 13 20 29.77 1008 5 8 N/A
7:15 pm 19:15 Cloudy 54 12 54 12 100 100 S 13 20 29.77 1008 7 11 N/A
7:35 pm 19:35 Cloudy 54 12 54 12 100 100 S 13 20 29.77 1008 7 11 N/A
7:55 pm 19:55 Cloudy 54 12 54 12 100 100 S 14 22 29.77 1008 10 16 N/A
8:14 pm 20:14 Cloudy 54 12 54 12 100 100 S 14 22 29.77 1008 10 16 N/A
8:35 pm 20:35 Cloudy 55 13 54 12 94 94 SSW 12 19 29.77 1008 10 16 N/A
8:55 pm 20:55 Cloudy 57 14 54 12 88 88 SSW 16 26 29.77 1008 10 16 N/A
9:15 pm 21:15 Cloudy 59 15 54 12 82 82 SSW 17 28 29.77 1008 10 16 N/A
9:35 pm 21:35 Cloudy 59 15 54 12 82 82 S 17 28 29.77 1008 10 16 N/A
9:54 pm 21:54 Mostly Cloudy 59 15 54 12 82 82 SSW 14 22 29.77 1008 10 16 N/A
10:15 pm 22:15 Partly Cloudy 59 15 54 12 82 82 SSW 18 30 29.77 1008 10 16 N/A
10:35 pm 22:35 Mostly Cloudy 61 16 54 12 77 77 SSW 23 37 29.77 1008 10 16 N/A
10:55 pm 22:55 Cloudy 61 16 54 12 77 77 SSW 25 41 29.74 1007 10 16 N/A
11:15 pm 23:15 Cloudy 61 16 55 13 83 83 SSW 26 43 29.74 1007 10 16 N/A
11:35 pm 23:35 Cloudy 61 16 55 13 83 83 SSW 25 41 29.77 1008 10 16 N/A
11:55 pm 23:55 Mostly Cloudy 61 16 55 13 83 83 SW 22 35 29.77 1008 10 16 N/A

Powered by AerisWeather